Location: A�t Bou Chrif
(32.7193°N, 5.2385°W)
Time: 23:46:42
(UTC+00:00)

Cosmos 1805 Rocket - Pass Details

Date: 08 August 2020
Orbit: 605 x 630 km, 82.5° (Epoch: 18 September)

Event Time Altitude Azimuth Distance (km) Brightness Sun altitude
Exits shadow 20:28:39 - 178° (S) 2,182 6.1 -15.3°
Reaches altitude 10° 20:29:09 10° 178° (S) 1,980 5.8 -15.4°
Maximum altitude 20:33:31 70° 95° (E) 664 3.5 -16.2°
Drops below altitude 10° 20:37:57 10° 11° (NNE) 2,007 6.4 -17.0°
Sets 20:40:12 0° 10° (N) 2,920 7.3 -17.4°
